When you browse on this site, cookies collect data to enhance your experience and personalize the content and advertising you see.
Visit our Privacy Policy to learn more. By continuing to use the site, you agree to this use of cookies and data.
  • In Belgien
  • Länderverzeichnis
  • Für 7 Tage
  • Wassertemperatur
  • Satellitenkarten
  • Wetterkarte
  • Widgets
  • user-avatar
    Anmelden

    Stündliche Wetter Stuttgart

    Heute, 25 April, Donnerstag

    Zeit Temperatur Niederschläge Wind Luftdruck Luftfeuchtigkeit
    00:00 +10°C° 0 mm 1 m/S 731 mmHg 77%
    01:00 +8°C° 0 mm 2 m/S 731 mmHg 78%
    02:00 +8°C° 0 mm 2 m/S 731 mmHg 79%
    03:00 +8°C° 0 mm 2 m/S 731 mmHg 80%
    04:00 +8°C° 0 mm 2 m/S 731 mmHg 80%
    05:00 +9°C° 0 mm 3 m/S 731 mmHg 77%
    06:00 +10°C° 0 mm 3 m/S 731 mmHg 73%
    07:00 +10°C° 0 mm 4 m/S 731 mmHg 70%
    08:00 +13°C° 0 mm 4 m/S 731 mmHg 64%
    09:00 +15°C° 0 mm 4 m/S 731 mmHg 58%
    10:00 +19°C° 0 mm 4 m/S 731 mmHg 52%
    11:00 +20°C° 0 mm 4 m/S 731 mmHg 48%
    12:00 +21°C° 0 mm 3 m/S 730 mmHg 44%
    13:00 +24°C° 0 mm 3 m/S 730 mmHg 40%
    14:00 +24°C° 0 mm 3 m/S 730 mmHg 40%
    15:00 +24°C° 0 mm 3 m/S 729 mmHg 41%
    16:00 +25°C° 0 mm 3 m/S 729 mmHg 41%
    17:00 +22°C° 0 mm 3 m/S 729 mmHg 49%
    18:00 +20°C° 0 mm 2 m/S 728 mmHg 57%
    19:00 +19°C° 0 mm 2 m/S 728 mmHg 64%
    20:00 +17°C° 0 mm 2 m/S 729 mmHg 70%
    21:00 +14°C° 0 mm 3 m/S 729 mmHg 76%
    22:00 +11°C° 0 mm 3 m/S 729 mmHg 82%
    23:00 +10°C° 0 mm 3 m/S 730 mmHg 84%

    Morgen, 26 April, Freitag

    Zeit Temperatur Niederschläge Wind Luftdruck Luftfeuchtigkeit
    00:00 +10°C° 0 mm 2 m/S 730 mmHg 86%
    01:00 +9°C° 0 mm 2 m/S 730 mmHg 89%
    02:00 +8°C° 0 mm 2 m/S 730 mmHg 90%
    03:00 +8°C° 0 mm 2 m/S 730 mmHg 92%
    04:00 +8°C° 0 mm 2 m/S 730 mmHg 93%
    05:00 +8°C° 0 mm 2 m/S 730 mmHg 91%
    06:00 +9°C° 0 mm 3 m/S 731 mmHg 89%
    07:00 +9°C° 0 mm 3 m/S 731 mmHg 87%
    08:00 +8°C° 0.4 mm 4 m/S 731 mmHg 88%
    09:00 +8°C° 0.4 mm 4 m/S 731 mmHg 89%
    10:00 +7°C° 0.4 mm 5 m/S 732 mmHg 89%
    11:00 +7°C° 1.6 mm 5 m/S 733 mmHg 90%
    12:00 +7°C° 1.6 mm 5 m/S 734 mmHg 90%
    13:00 +7°C° 1.6 mm 5 m/S 734 mmHg 91%
    14:00 +7°C° 0.4 mm 5 m/S 735 mmHg 87%
    15:00 +8°C° 0.4 mm 4 m/S 736 mmHg 84%
    16:00 +10°C° 0.4 mm 4 m/S 736 mmHg 81%
    17:00 +10°C° 0.1 mm 3 m/S 736 mmHg 82%
    18:00 +9°C° 0.1 mm 3 m/S 737 mmHg 83%
    19:00 +9°C° 0.1 mm 3 m/S 737 mmHg 84%
    20:00 +9°C° 0.1 mm 3 m/S 737 mmHg 85%
    21:00 +8°C° 0.1 mm 3 m/S 737 mmHg 85%
    22:00 +8°C° 0.1 mm 2 m/S 738 mmHg 85%
    23:00 +8°C° 0 mm 2 m/S 738 mmHg 85%

    übermorgen, 27 April, Samstag

    Zeit Temperatur Niederschläge Wind Luftdruck Luftfeuchtigkeit
    00:00 +7°C° 0 mm 2 m/S 737 mmHg 85%
    01:00 +7°C° 0 mm 2 m/S 737 mmHg 85%
    02:00 +7°C° 0 mm 2 m/S 737 mmHg 85%
    03:00 +7°C° 0 mm 2 m/S 737 mmHg 85%
    04:00 +6°C° 0 mm 2 m/S 737 mmHg 85%
    05:00 +7°C° 0 mm 3 m/S 737 mmHg 84%
    06:00 +8°C° 0 mm 3 m/S 737 mmHg 83%
    07:00 +8°C° 0 mm 3 m/S 737 mmHg 82%
    08:00 +9°C° 0.2 mm 3 m/S 737 mmHg 82%
    09:00 +8°C° 0.2 mm 4 m/S 737 mmHg 82%
    10:00 +10°C° 0.2 mm 4 m/S 736 mmHg 82%
    11:00 +10°C° 0.4 mm 4 m/S 736 mmHg 80%
    12:00 +11°C° 0.4 mm 4 m/S 736 mmHg 79%
    13:00 +11°C° 0.4 mm 4 m/S 736 mmHg 77%
    14:00 +10°C° 0.5 mm 5 m/S 736 mmHg 78%
    15:00 +10°C° 0.5 mm 5 m/S 735 mmHg 78%
    16:00 +10°C° 0.5 mm 6 m/S 735 mmHg 78%
    17:00 +9°C° 0.2 mm 5 m/S 735 mmHg 80%
    18:00 +8°C° 0.2 mm 4 m/S 735 mmHg 81%
    19:00 +8°C° 0.2 mm 3 m/S 735 mmHg 83%
    20:00 +8°C° 0 mm 3 m/S 736 mmHg 84%
    21:00 +7°C° 0 mm 3 m/S 736 mmHg 86%
    22:00 +6°C° 0 mm 2 m/S 736 mmHg 88%
    23:00 +6°C° 0 mm 2 m/S 736 mmHg 89%

    28 April, Sonntag

    Zeit Temperatur Niederschläge Wind Luftdruck Luftfeuchtigkeit
    00:00 +6°C° 0 mm 2 m/S 736 mmHg 89%
    01:00 +5°C° 0 mm 2 m/S 736 mmHg 90%
    02:00 +5°C° 0 mm 2 m/S 736 mmHg 90%
    03:00 +5°C° 0 mm 2 m/S 736 mmHg 89%
    04:00 +6°C° 0 mm 2 m/S 736 mmHg 89%
    05:00 +6°C° 0 mm 2 m/S 736 mmHg 87%
    06:00 +6°C° 0 mm 2 m/S 736 mmHg 85%
    07:00 +7°C° 0 mm 2 m/S 737 mmHg 83%
    08:00 +8°C° 0 mm 2 m/S 737 mmHg 77%
    09:00 +10°C° 0 mm 1 m/S 737 mmHg 71%
    10:00 +12°C° 0 mm 1 m/S 737 mmHg 64%
    11:00 +12°C° 0.1 mm 1 m/S 737 mmHg 63%
    12:00 +13°C° 0.1 mm 1 m/S 737 mmHg 61%
    13:00 +14°C° 0.1 mm 1 m/S 737 mmHg 59%
    14:00 +14°C° 0.1 mm 1 m/S 737 mmHg 57%
    15:00 +14°C° 0.1 mm 1 m/S 737 mmHg 56%
    16:00 +15°C° 0.1 mm 1 m/S 737 mmHg 55%
    17:00 +14°C° 0.1 mm 1 m/S 737 mmHg 60%
    18:00 +13°C° 0.1 mm 1 m/S 737 mmHg 65%
    19:00 +12°C° 0.1 mm 1 m/S 737 mmHg 71%
    20:00 +11°C° 0 mm 1 m/S 737 mmHg 75%
    21:00 +9°C° 0 mm 1 m/S 738 mmHg 79%
    22:00 +7°C° 0 mm 0 m/S 738 mmHg 83%
    23:00 +7°C° 0 mm 0 m/S 738 mmHg 84%

    29 April, Montag

    Zeit Temperatur Niederschläge Wind Luftdruck Luftfeuchtigkeit
    00:00 +6°C° 0 mm 0 m/S 738 mmHg 85%
    01:00 +6°C° 0 mm 0 m/S 738 mmHg 86%
    02:00 +6°C° 0 mm 0 m/S 738 mmHg 86%
    03:00 +5°C° 0 mm 0 m/S 738 mmHg 87%
    04:00 +5°C° 0 mm 0 m/S 738 mmHg 88%
    05:00 +6°C° 0 mm 0 m/S 738 mmHg 85%
    06:00 +8°C° 0 mm 1 m/S 739 mmHg 82%
    07:00 +9°C° 0 mm 1 m/S 739 mmHg 80%
    08:00 +11°C° 0 mm 1 m/S 738 mmHg 73%
    09:00 +13°C° 0 mm 2 m/S 738 mmHg 66%
    10:00 +15°C° 0 mm 2 m/S 738 mmHg 59%
    11:00 +15°C° 0.1 mm 2 m/S 738 mmHg 57%
    12:00 +16°C° 0.1 mm 3 m/S 737 mmHg 54%
    13:00 +17°C° 0.1 mm 3 m/S 737 mmHg 52%
    14:00 +16°C° 0.2 mm 3 m/S 737 mmHg 57%
    15:00 +16°C° 0.2 mm 3 m/S 737 mmHg 62%
    16:00 +14°C° 0.2 mm 3 m/S 736 mmHg 68%
    17:00 +13°C° 0.3 mm 3 m/S 736 mmHg 74%
    18:00 +13°C° 0.3 mm 2 m/S 736 mmHg 80%
    19:00 +12°C° 0.3 mm 2 m/S 737 mmHg 86%
    20:00 +10°C° 0.2 mm 2 m/S 737 mmHg 88%
    21:00 +11°C° 0.2 mm 1 m/S 737 mmHg 90%
    22:00 +10°C° 0.2 mm 1 m/S 737 mmHg 92%
    23:00 +10°C° 0.2 mm 1 m/S 737 mmHg 92%

    30 April, Dienstag

    Zeit Temperatur Niederschläge Wind Luftdruck Luftfeuchtigkeit
    00:00 +9°C° 0.2 mm 2 m/S 737 mmHg 93%
    01:00 +9°C° 0.2 mm 2 m/S 736 mmHg 94%
    02:00 +9°C° 0.4 mm 2 m/S 736 mmHg 94%
    03:00 +9°C° 0.4 mm 2 m/S 736 mmHg 95%
    04:00 +8°C° 0.4 mm 2 m/S 736 mmHg 95%
    05:00 +9°C° 0.3 mm 2 m/S 736 mmHg 95%
    06:00 +9°C° 0.3 mm 2 m/S 736 mmHg 95%
    07:00 +9°C° 0.3 mm 2 m/S 736 mmHg 95%
    08:00 +10°C° 0.2 mm 2 m/S 736 mmHg 94%
    09:00 +10°C° 0.2 mm 2 m/S 736 mmHg 93%
    10:00 +12°C° 0.2 mm 2 m/S 736 mmHg 92%
    11:00 +13°C° 0.2 mm 2 m/S 736 mmHg 87%
    12:00 +14°C° 0.2 mm 2 m/S 736 mmHg 83%
    13:00 +14°C° 0.2 mm 3 m/S 736 mmHg 79%
    14:00 +15°C° 0.4 mm 2 m/S 736 mmHg 77%
    15:00 +15°C° 0.4 mm 2 m/S 736 mmHg 76%
    16:00 +15°C° 0.4 mm 2 m/S 735 mmHg 75%
    17:00 +15°C° 0.2 mm 2 m/S 735 mmHg 78%
    18:00 +14°C° 0.2 mm 2 m/S 735 mmHg 81%
    19:00 +13°C° 0.2 mm 1 m/S 735 mmHg 84%
    20:00 +12°C° 0 mm 1 m/S 736 mmHg 87%
    21:00 +11°C° 0 mm 1 m/S 736 mmHg 89%
    22:00 +10°C° 0 mm 1 m/S 736 mmHg 91%
    23:00 +9°C° 0 mm 1 m/S 736 mmHg 92%
    Mehr zeigen